TimeEDT,TemperatureF,Dew PointF,Humidity,Sea Level PressureIn,VisibilityMPH,Wind Direction,Wind SpeedMPH,Gust SpeedMPH,PrecipitationIn,Events,Conditions,WindDirDegrees,DateUTC
12:53 AM,62.1,57.0,84,30.06,10.0,Calm,Calm,-,N/A,,Clear,0,2013-05-17 04:53:00
1:53 AM,62.6,57.2,82,30.04,10.0,Calm,Calm,-,N/A,,Clear,0,2013-05-17 05:53:00
2:36 AM,60.8,55.4,82,30.04,10.0,Calm,Calm,-,N/A,,Partly Cloudy,0,2013-05-17 06:36:00
2:53 AM,60.1,55.9,86,30.04,10.0,Variable,3.5,-,N/A,,Mostly Cloudy,0,2013-05-17 06:53:00
3:43 AM,60.8,57.2,88,30.04,1.5,Calm,Calm,-,N/A,,Overcast,0,2013-05-17 07:43:00
3:51 AM,60.8,59.0,94,30.04,0.8,Calm,Calm,-,N/A,,Mist,0,2013-05-17 07:51:00
3:53 AM,61.0,59.0,93,30.04,0.8,Calm,Calm,-,N/A,,Mist,0,2013-05-17 07:53:00
4:13 AM,60.8,57.2,88,30.04,1.8,Calm,Calm,-,N/A,,Overcast,0,2013-05-17 08:13:00
4:20 AM,60.8,57.2,88,30.04,2.0,Calm,Calm,-,N/A,,Overcast,0,2013-05-17 08:20:00
4:27 AM,60.8,57.2,88,30.03,0.8,Calm,Calm,-,N/A,,Overcast,0,2013-05-17 08:27:00
4:38 AM,60.8,59.0,94,30.03,0.2,South,4.6,-,N/A,Fog,Fog,190,2013-05-17 08:38:00
4:53 AM,60.1,57.9,93,30.03,0.5,Calm,Calm,-,N/A,Fog,Fog,0,2013-05-17 08:53:00
5:18 AM,60.8,57.2,88,30.04,0.2,Calm,Calm,-,N/A,Fog,Fog,0,2013-05-17 09:18:00
5:24 AM,60.8,57.2,88,30.05,0.5,Calm,Calm,-,N/A,Fog,Fog,0,2013-05-17 09:24:00
5:34 AM,60.8,57.2,88,30.05,0.5,Calm,Calm,-,N/A,Fog,Fog,0,2013-05-17 09:34:00
5:41 AM,60.8,59.0,94,30.06,0.2,Calm,Calm,-,N/A,Fog,Fog,0,2013-05-17 09:41:00
5:53 AM,61.0,59.0,93,30.05,0.2,Calm,Calm,-,N/A,Fog,Fog,0,2013-05-17 09:53:00
6:24 AM,60.8,59.0,94,30.07,0.2,Calm,Calm,-,N/A,Fog,Fog,0,2013-05-17 10:24:00
6:53 AM,62.1,60.1,93,30.08,0.2,Calm,Calm,-,N/A,Fog,Fog,0,2013-05-17 10:53:00
7:32 AM,64.4,62.6,94,30.09,0.2,Calm,Calm,-,N/A,Fog,Fog,0,2013-05-17 11:32:00
7:53 AM,64.4,62.6,94,30.09,0.2,Calm,Calm,-,N/A,Fog,Fog,0,2013-05-17 11:53:00
8:10 AM,64.4,62.6,94,30.10,0.5,Calm,Calm,-,N/A,Fog,Fog,0,2013-05-17 12:10:00
8:19 AM,64.4,62.6,94,30.10,0.2,Calm,Calm,-,N/A,Fog,Fog,0,2013-05-17 12:19:00
8:44 AM,66.2,64.4,94,30.10,1.0,Calm,Calm,-,N/A,,Mist,0,2013-05-17 12:44:00
8:49 AM,66.2,64.4,94,30.10,3.0,Calm,Calm,-,N/A,,Overcast,0,2013-05-17 12:49:00
8:53 AM,66.0,64.0,93,30.10,6.0,Calm,Calm,-,N/A,,Overcast,0,2013-05-17 12:53:00
9:10 AM,66.2,64.4,94,30.11,10.0,SE,3.5,-,N/A,,Scattered Clouds,130,2013-05-17 13:10:00
9:53 AM,75.9,62.1,62,30.11,10.0,Calm,Calm,-,N/A,,Partly Cloudy,0,2013-05-17 13:53:00
10:53 AM,79.0,61.0,54,30.11,10.0,South,5.8,-,N/A,,Partly Cloudy,190,2013-05-17 14:53:00
11:53 AM,82.9,57.9,42,30.11,10.0,Variable,6.9,-,N/A,,Partly Cloudy,0,2013-05-17 15:53:00
12:53 PM,84.0,59.0,43,30.10,10.0,Calm,Calm,-,N/A,,Scattered Clouds,0,2013-05-17 16:53:00
1:53 PM,86.0,57.9,38,30.08,10.0,South,6.9,18.4,N/A,,Scattered Clouds,180,2013-05-17 17:53:00
2:53 PM,87.8,55.4,33,30.07,10.0,South,8.1,-,N/A,,Scattered Clouds,170,2013-05-17 18:53:00
3:53 PM,89.1,54.0,30,30.06,10.0,South,10.4,18.4,N/A,,Scattered Clouds,180,2013-05-17 19:53:00
4:53 PM,88.0,53.1,30,30.05,10.0,South,10.4,-,N/A,,Partly Cloudy,170,2013-05-17 20:53:00
5:53 PM,87.1,55.0,33,30.04,10.0,South,9.2,-,N/A,,Partly Cloudy,180,2013-05-17 21:53:00
6:53 PM,84.9,54.0,34,30.04,10.0,SSE,6.9,-,N/A,,Partly Cloudy,160,2013-05-17 22:53:00
7:53 PM,82.0,57.0,42,30.04,10.0,South,5.8,-,N/A,,Clear,180,2013-05-17 23:53:00
8:53 PM,77.0,57.0,50,30.06,10.0,South,4.6,-,N/A,,Clear,180,2013-05-18 00:53:00
9:53 PM,73.9,57.0,55,30.06,10.0,SSW,4.6,-,N/A,,Clear,200,2013-05-18 01:53:00
10:53 PM,71.1,57.9,63,30.07,9.0,SSW,3.5,-,N/A,,Clear,200,2013-05-18 02:53:00
11:53 PM,66.9,57.9,73,30.08,10.0,Calm,Calm,-,N/A,,Clear,0,2013-05-18 03:53:00